owner,sensor,date,latitude,longitude,vertical_datum,wind_speed,wind_to_direction,wind_speed_of_gust,qcFlag 
DISL,ioos:station:DISL:KATA:1,2019-03-01T05:30:00Z,30.2583,-88.2131,0.0,3.5,149.0,99.0,'11111222,11111222,11144222' 
DISL,ioos:station:DISL:KATA:1,2019-03-01T06:00:00Z,30.2583,-88.2131,0.0,3.5,145.0,99.0,'11111222,11111222,11144222' 
DISL,ioos:station:DISL:KATA:1,2019-03-01T14:50:00Z,30.2583,-88.2131,0.0,1.27,174.2,-9999.0,'1111122,1111122,1111122' 
DISL,ioos:station:DISL:KATA:1,2019-03-01T15:00:00Z,30.2583,-88.2131,0.0,1.6,184.0,99.0,'11111222,11111222,11144222' 
DISL,ioos:station:DISL:KATA:1,2019-03-01T15:30:00Z,30.2583,-88.2131,0.0,2.5,215.0,99.0,'11111222,11111222,11144222' 
DISL,ioos:station:DISL:KATA:1,2019-03-01T15:50:00Z,30.2583,-88.2131,0.0,3.12,199.8,-9999.0,'1111122,1111122,1111122' 
DISL,ioos:station:DISL:KATA:1,2019-03-01T16:00:00Z,30.2583,-88.2131,0.0,3.0,217.0,99.0,'11111222,11111222,11144222' 
DISL,ioos:station:DISL:KATA:1,2019-03-01T16:30:00Z,30.2583,-88.2131,0.0,4.8,195.0,99.0,'11111222,11111222,11144222' 
DISL,ioos:station:DISL:KATA:1,2019-03-01T16:50:00Z,30.2583,-88.2131,0.0,4.65,206.5,-9999.0,'1111122,1111122,1111122' 
DISL,ioos:station:DISL:KATA:1,2019-03-01T17:00:00Z,30.2583,-88.2131,0.0,4.7,211.0,99.0,'11111222,11111222,11144222' 
DISL,ioos:station:DISL:KATA:1,2019-03-01T17:30:00Z,30.2583,-88.2131,0.0,3.9,214.0,99.0,'11111222,11111222,11144222' 
DISL,ioos:station:DISL:KATA:1,2019-03-01T17:50:00Z,30.2583,-88.2131,0.0,4.57,204.0,-9999.0,'1111122,1111122,1111122' 
DISL,ioos:station:DISL:KATA:1,2019-03-01T18:00:00Z,30.2583,-88.2131,0.0,5.0,206.0,99.0,'11111222,11111222,11144222' 
DISL,ioos:station:DISL:KATA:1,2019-03-01T18:30:00Z,30.2583,-88.2131,0.0,5.8,207.0,99.0,'11111222,11111222,11144222' 
DISL,ioos:station:DISL:KATA:1,2019-03-01T18:50:00Z,30.2583,-88.2131,0.0,5.37,219.8,-9999.0,'1111122,1111122,1111122' 
DISL,ioos:station:DISL:KATA:1,2019-03-01T19:00:00Z,30.2583,-88.2131,0.0,5.1,227.0,99.0,'11111222,11111222,11144222' 
DISL,ioos:station:DISL:KATA:1,2019-03-01T19:30:00Z,30.2583,-88.2131,0.0,5.0,239.0,99.0,'11111222,11111222,11144222' 
DISL,ioos:station:DISL:KATA:1,2019-03-01T19:50:00Z,30.2583,-88.2131,0.0,4.68,251.9,-9999.0,'1111122,1111122,1111122' 
DISL,ioos:station:DISL:KATA:1,2019-03-01T20:00:00Z,30.2583,-88.2131,0.0,4.5,256.0,99.0,'11111222,11111222,11144222' 
DISL,ioos:station:DISL:KATA:1,2019-03-01T20:20:00Z,30.2583,-88.2131,0.0,3.57,259.4,-9999.0,'1111122,1111122,1111122' 
DISL,ioos:station:DISL:KATA:1,2019-03-01T20:30:00Z,30.2583,-88.2131,0.0,3.4,259.0,99.0,'11111222,11111222,11144222' 
DISL,ioos:station:DISL:KATA:1,2019-03-02T17:20:00Z,30.2583,-88.2131,0.0,1.77,214.7,-9999.0,'1111122,1111122,1111122' 
DISL,ioos:station:DISL:KATA:1,2019-03-02T17:30:00Z,30.2583,-88.2131,0.0,2.7,212.0,99.0,'11111222,11111222,11144222' 
DISL,ioos:station:DISL:KATA:1,2019-03-03T17:30:00Z,30.2583,-88.2131,0.0,0.9,207.0,99.0,'11111222,11111222,11144222' 
DISL,ioos:station:DISL:KATA:1,2019-03-03T18:00:00Z,30.2583,-88.2131,0.0,10.0,203.0,99.0,'11111222,11111222,11144222' 
DISL,ioos:station:DISL:KATA:1,2019-03-03T18:30:00Z,30.2583,-88.2131,0.0,11.1,206.0,99.0,'11111222,11111222,11144222' 
DISL,ioos:station:DISL:KATA:1,2019-03-03T18:50:00Z,30.2583,-88.2131,0.0,11.38,212.7,-9999.0,'1111122,1111122,1111122' 
DISL,ioos:station:DISL:KATA:1,2019-03-03T19:00:00Z,30.2583,-88.2131,0.0,11.1,217.0,99.0,'11111222,11111222,11144222' 
DISL,ioos:station:DISL:KATA:1,2019-03-04T14:50:00Z,30.2583,-88.2131,0.0,-4115.04,4.81,-9999.0,'1111122,1111122,1111122' 
DISL,ioos:station:DISL:KATA:1,2019-03-04T15:00:00Z,30.2583,-88.2131,0.0,9.0,20.0,99.0,'11111222,11111222,11144222' 
DISL,ioos:station:DISL:KATA:1,2019-03-04T15:30:00Z,30.2583,-88.2131,0.0,9.0,4.0,99.0,'11111222,11111222,11144222' 
DISL,ioos:station:DISL:KATA:1,2019-03-04T15:50:00Z,30.2583,-88.2131,0.0,7.91,354.4,-9999.0,'1111122,1111122,1111122' 
DISL,ioos:station:DISL:KATA:1,2019-03-04T16:00:00Z,30.2583,-88.2131,0.0,8.4,1.0,99.0,'11111222,11111222,11144222' 
DISL,ioos:station:DISL:KATA:1,2019-03-04T16:30:00Z,30.2583,-88.2131,0.0,8.7,2.0,99.0,'11111222,11111222,11144222' 
DISL,ioos:station:DISL:KATA:1,2019-03-04T16:50:00Z,30.2583,-88.2131,0.0,8.87,359.2,-9999.0,'1111122,1111122,1111122' 
DISL,ioos:station:DISL:KATA:1,2019-03-04T17:00:00Z,30.2583,-88.2131,0.0,9.2,2.0,99.0,'11111222,11111222,11144222' 
DISL,ioos:station:DISL:KATA:1,2019-03-04T17:30:00Z,30.2583,-88.2131,0.0,8.6,5.0,99.0,'11111222,11111222,11144222' 
DISL,ioos:station:DISL:KATA:1,2019-03-04T17:50:00Z,30.2583,-88.2131,0.0,7.55,15.79,-9999.0,'1111122,1111122,1111122' 
DISL,ioos:station:DISL:KATA:1,2019-03-04T18:00:00Z,30.2583,-88.2131,0.0,7.9,17.0,99.0,'11111222,11111222,11144222' 
DISL,ioos:station:DISL:KATA:1,2019-03-04T18:30:00Z,30.2583,-88.2131,0.0,7.9,7.0,99.0,'11111222,11111222,11144222' 
DISL,ioos:station:DISL:KATA:1,2019-03-04T18:50:00Z,30.2583,-88.2131,0.0,8.91,12.82,-9999.0,'1111122,1111122,1111122' 
DISL,ioos:station:DISL:KATA:1,2019-03-04T19:00:00Z,30.2583,-88.2131,0.0,8.2,1.0,99.0,'11111222,11111222,11144222' 
DISL,ioos:station:DISL:KATA:1,2019-03-04T19:30:00Z,30.2583,-88.2131,0.0,8.7,12.0,99.0,'11111222,11111222,11144222' 
DISL,ioos:station:DISL:KATA:1,2019-03-04T19:50:00Z,30.2583,-88.2131,0.0,8.39,13.1,-9999.0,'1111122,1111122,1111122' 
DISL,ioos:station:DISL:KATA:1,2019-03-04T20:00:00Z,30.2583,-88.2131,0.0,7.9,14.0,99.0,'11111222,11111222,11144222' 
DISL,ioos:station:DISL:KATA:1,2019-03-04T20:30:00Z,30.2583,-88.2131,0.0,7.6,8.0,99.0,'11111222,11111222,11144222' 
DISL,ioos:station:DISL:KATA:1,2019-03-04T20:50:00Z,30.2583,-88.2131,0.0,5.84,13.34,-9999.0,'1111122,1111122,1111122' 
DISL,ioos:station:DISL:KATA:1,2019-03-04T21:00:00Z,30.2583,-88.2131,0.0,6.6,13.0,99.0,'11111222,11111222,11144222' 
DISL,ioos:station:DISL:KATA:1,2019-03-04T21:30:00Z,30.2583,-88.2131,0.0,7.8,20.0,99.0,'11111222,11111222,11144222' 
DISL,ioos:station:DISL:KATA:1,2019-03-04T21:50:00Z,30.2583,-88.2131,0.0,6.54,17.99,-9999.0,'1111122,1111122,1111122' 
DISL,ioos:station:DISL:KATA:1,2019-03-04T22:00:00Z,30.2583,-88.2131,0.0,7.7,24.0,99.0,'11111222,11111222,11144222' 
DISL,ioos:station:DISL:KATA:1,2019-03-04T22:30:00Z,30.2583,-88.2131,0.0,9.4,45.0,99.0,'11111222,11111222,11144222' 
DISL,ioos:station:DISL:KATA:1,2019-03-04T22:50:00Z,30.2583,-88.2131,0.0,8.71,44.68,-9999.0,'1111122,1111122,1111122' 
DISL,ioos:station:DISL:KATA:1,2019-03-04T23:00:00Z,30.2583,-88.2131,0.0,9.2,32.0,99.0,'11111222,11111222,11144222' 
DISL,ioos:station:DISL:KATA:1,2019-03-04T23:30:00Z,30.2583,-88.2131,0.0,8.6,9.0,99.0,'11111222,11111222,11144222' 
DISL,ioos:station:DISL:KATA:1,2019-03-04T23:50:00Z,30.2583,-88.2131,0.0,8.42,4.249,-9999.0,'1111122,1111122,1111122' 
DISL,ioos:station:DISL:KATA:1,2019-03-05T00:00:00Z,30.2583,-88.2131,0.0,7.9,0.0,99.0,'11111222,11111222,11144222' 
DISL,ioos:station:DISL:KATA:1,2019-03-05T00:30:00Z,30.2583,-88.2131,0.0,7.3,24.0,99.0,'11111222,11111222,11144222' 
DISL,ioos:station:DISL:KATA:1,2019-03-05T00:50:00Z,30.2583,-88.2131,0.0,7.37,33.13,-9999.0,'1111122,1111122,1111122' 
DISL,ioos:station:DISL:KATA:1,2019-03-05T01:00:00Z,30.2583,-88.2131,0.0,7.6,28.0,99.0,'11111222,11111222,11144222' 
DISL,ioos:station:DISL:KATA:1,2019-03-05T12:50:00Z,30.2583,-88.2131,0.0,9.02,6.68,-9999.0,'1111122,1111122,1111122' 
DISL,ioos:station:DISL:KATA:1,2019-03-05T13:00:00Z,30.2583,-88.2131,0.0,9.9,2.0,99.0,'11111222,11111222,11144222' 
DISL,ioos:station:DISL:KATA:1,2019-03-05T13:30:00Z,30.2583,-88.2131,0.0,8.8,8.0,99.0,'11111222,11111222,11144222' 
DISL,ioos:station:DISL:KATA:1,2019-03-05T13:50:00Z,30.2583,-88.2131,0.0,9.2,10.17,-9999.0,'1111122,1111122,1111122' 
DISL,ioos:station:DISL:KATA:1,2019-03-05T14:00:00Z,30.2583,-88.2131,0.0,9.7,7.0,99.0,'11111222,11111222,11144222' 
DISL,ioos:station:DISL:KATA:1,2019-03-05T14:30:00Z,30.2583,-88.2131,0.0,7.3,15.0,99.0,'11111222,11111222,11144222' 
DISL,ioos:station:DISL:KATA:1,2019-03-05T14:50:00Z,30.2583,-88.2131,0.0,7.36,1.279,-9999.0,'1111122,1111122,1111122' 
DISL,ioos:station:DISL:KATA:1,2019-03-05T15:00:00Z,30.2583,-88.2131,0.0,7.3,9.0,99.0,'11111222,11111222,11144222' 
DISL,ioos:station:DISL:KATA:1,2019-03-05T15:30:00Z,30.2583,-88.2131,0.0,6.6,2.0,99.0,'11111222,11111222,11144222' 
DISL,ioos:station:DISL:KATA:1,2019-03-05T15:50:00Z,30.2583,-88.2131,0.0,6.81,359.7,-9999.0,'1111122,1111122,1111122' 
DISL,ioos:station:DISL:KATA:1,2019-03-05T16:00:00Z,30.2583,-88.2131,0.0,6.4,6.0,99.0,'11111222,11111222,11144222' 
DISL,ioos:station:DISL:KATA:1,2019-03-05T16:30:00Z,30.2583,-88.2131,0.0,6.3,359.0,99.0,'11111222,11111222,11144222' 
DISL,ioos:station:DISL:KATA:1,2019-03-05T16:50:00Z,30.2583,-88.2131,0.0,6.28,352.4,-9999.0,'1111122,1111122,1111122' 
DISL,ioos:station:DISL:KATA:1,2019-03-05T17:00:00Z,30.2583,-88.2131,0.0,6.1,347.0,99.0,'11111222,11111222,11144222' 
DISL,ioos:station:DISL:KATA:1,2019-03-05T17:30:00Z,30.2583,-88.2131,0.0,6.0,345.0,99.0,'11111222,11111222,11144222' 
DISL,ioos:station:DISL:KATA:1,2019-03-05T17:50:00Z,30.2583,-88.2131,0.0,5.36,355.1,-9999.0,'1111122,1111122,1111122' 
DISL,ioos:station:DISL:KATA:1,2019-03-05T18:00:00Z,30.2583,-88.2131,0.0,4.6,14.0,99.0,'11111222,11111222,11144222' 
DISL,ioos:station:DISL:KATA:1,2019-03-05T18:30:00Z,30.2583,-88.2131,0.0,5.2,350.0,99.0,'11111222,11111222,11144222' 
DISL,ioos:station:DISL:KATA:1,2019-03-05T18:50:00Z,30.2583,-88.2131,0.0,5.41,339.0,-9999.0,'1111122,1111122,1111122' 
DISL,ioos:station:DISL:KATA:1,2019-03-05T19:00:00Z,30.2583,-88.2131,0.0,6.1,339.0,99.0,'11111222,11111222,11144222' 
DISL,ioos:station:DISL:KATA:1,2019-03-05T19:30:00Z,30.2583,-88.2131,0.0,6.7,346.0,99.0,'11111222,11111222,11144222' 
DISL,ioos:station:DISL:KATA:1,2019-03-05T19:50:00Z,30.2583,-88.2131,0.0,7.53,342.0,-9999.0,'1111122,1111122,1111122' 
DISL,ioos:station:DISL:KATA:1,2019-03-05T20:00:00Z,30.2583,-88.2131,0.0,8.0,349.0,99.0,'11111222,11111222,11144222' 
DISL,ioos:station:DISL:KATA:1,2019-03-05T20:30:00Z,30.2583,-88.2131,0.0,7.4,338.0,99.0,'11111222,11111222,11144222' 
DISL,ioos:station:DISL:KATA:1,2019-03-05T20:50:00Z,30.2583,-88.2131,0.0,8.24,347.9,-9999.0,'1111122,1111122,1111122' 
DISL,ioos:station:DISL:KATA:1,2019-03-05T21:00:00Z,30.2583,-88.2131,0.0,8.2,348.0,99.0,'11111222,11111222,11144222' 
DISL,ioos:station:DISL:KATA:1,2019-03-05T21:30:00Z,30.2583,-88.2131,0.0,7.9,341.0,99.0,'11111222,11111222,11144222' 
DISL,ioos:station:DISL:KATA:1,2019-03-05T22:00:00Z,30.2583,-88.2131,0.0,7.4,342.0,99.0,'11111222,11111222,11144222' 
DISL,ioos:station:DISL:KATA:1,2019-03-05T22:30:00Z,30.2583,-88.2131,0.0,8.3,341.0,99.0,'11111222,11111222,11144222' 
DISL,ioos:station:DISL:KATA:1,2019-03-05T22:50:00Z,30.2583,-88.2131,0.0,8.51,354.4,-9999.0,'1111122,1111122,1111122' 
DISL,ioos:station:DISL:KATA:1,2019-03-05T23:00:00Z,30.2583,-88.2131,0.0,7.3,353.0,99.0,'11111222,11111222,11144222' 
DISL,ioos:station:DISL:KATA:1,2019-03-05T23:30:00Z,30.2583,-88.2131,0.0,7.6,356.0,99.0,'11111222,11111222,11144222' 
DISL,ioos:station:DISL:KATA:1,2019-03-05T23:50:00Z,30.2583,-88.2131,0.0,7.03,351.0,-9999.0,'1111122,1111122,1111122' 
DISL,ioos:station:DISL:KATA:1,2019-03-06T00:00:00Z,30.2583,-88.2131,0.0,6.9,358.0,99.0,'11111222,11111222,11144222' 
DISL,ioos:station:DISL:KATA:1,2019-03-06T00:30:00Z,30.2583,-88.2131,0.0,7.5,359.0,99.0,'11111222,11111222,11144222' 
DISL,ioos:station:DISL:KATA:1,2019-03-06T00:50:00Z,30.2583,-88.2131,0.0,7.3,357.9,-9999.0,'1111122,1111122,1111122' 
DISL,ioos:station:DISL:KATA:1,2019-03-06T01:00:00Z,30.2583,-88.2131,0.0,7.4,360.0,99.0,'11111222,11144222,11144222' 
DISL,ioos:station:DISL:KATA:1,2019-03-06T01:30:00Z,30.2583,-88.2131,0.0,7.6,355.0,99.0,'11111222,11111222,11144222' 
DISL,ioos:station:DISL:KATA:1,2019-03-06T01:50:00Z,30.2583,-88.2131,0.0,7.29,352.6,-9999.0,'1111122,1111122,1111122' 
DISL,ioos:station:DISL:KATA:1,2019-03-06T02:00:00Z,30.2583,-88.2131,0.0,8.2,353.0,99.0,'11111222,11111222,11144222' 
DISL,ioos:station:DISL:KATA:1,2019-03-06T02:30:00Z,30.2583,-88.2131,0.0,9.1,351.0,99.0,'11111222,11111222,11144222' 
DISL,ioos:station:DISL:KATA:1,2019-03-06T02:50:00Z,30.2583,-88.2131,0.0,8.89,0.452,-9999.0,'1111122,1111122,1111122' 
DISL,ioos:station:DISL:KATA:1,2019-03-06T03:00:00Z,30.2583,-88.2131,0.0,8.9,353.0,99.0,'11111222,11111222,11144222' 
DISL,ioos:station:DISL:KATA:1,2019-03-06T12:50:00Z,30.2583,-88.2131,0.0,5.47,15.27,-9999.0,'1111122,1111122,1111122' 
DISL,ioos:station:DISL:KATA:1,2019-03-06T13:00:00Z,30.2583,-88.2131,0.0,7.2,21.0,99.0,'11111222,11111222,11144222' 
DISL,ioos:station:DISL:KATA:1,2019-03-06T13:30:00Z,30.2583,-88.2131,0.0,7.0,27.0,99.0,'11111222,11111222,11144222' 
DISL,ioos:station:DISL:KATA:1,2019-03-06T13:50:00Z,30.2583,-88.2131,0.0,6.79,30.75,-9999.0,'1111122,1111122,1111122' 
DISL,ioos:station:DISL:KATA:1,2019-03-06T14:00:00Z,30.2583,-88.2131,0.0,5.9,32.0,99.0,'11111222,11111222,11144222' 
DISL,ioos:station:DISL:KATA:1,2019-03-06T14:30:00Z,30.2583,-88.2131,0.0,6.1,29.0,99.0,'11111222,11111222,11144222' 
DISL,ioos:station:DISL:KATA:1,2019-03-06T14:50:00Z,30.2583,-88.2131,0.0,5.89,32.72,-9999.0,'1111122,1111122,1111122' 
DISL,ioos:station:DISL:KATA:1,2019-03-06T15:00:00Z,30.2583,-88.2131,0.0,6.3,41.0,99.0,'11111222,11111222,11144222' 
DISL,ioos:station:DISL:KATA:1,2019-03-06T15:30:00Z,30.2583,-88.2131,0.0,7.0,48.0,99.0,'11111222,11111222,11144222' 
DISL,ioos:station:DISL:KATA:1,2019-03-06T15:50:00Z,30.2583,-88.2131,0.0,7.24,51.81,-9999.0,'1111122,1111122,1111122' 
DISL,ioos:station:DISL:KATA:1,2019-03-06T16:00:00Z,30.2583,-88.2131,0.0,6.7,51.0,99.0,'11111222,11111222,11144222' 
DISL,ioos:station:DISL:KATA:1,2019-03-06T16:30:00Z,30.2583,-88.2131,0.0,7.0,57.0,99.0,'11111222,11111222,11144222' 
DISL,ioos:station:DISL:KATA:1,2019-03-06T16:50:00Z,30.2583,-88.2131,0.0,7.01,59.25,-9999.0,'1111122,1111122,1111122' 
DISL,ioos:station:DISL:KATA:1,2019-03-06T17:00:00Z,30.2583,-88.2131,0.0,6.2,68.0,99.0,'11111222,11111222,11144222' 
DISL,ioos:station:DISL:KATA:1,2019-03-06T17:30:00Z,30.2583,-88.2131,0.0,4.7,67.0,99.0,'11111222,11111222,11144222' 
DISL,ioos:station:DISL:KATA:1,2019-03-06T17:50:00Z,30.2583,-88.2131,0.0,4.54,71.94,-9999.0,'1111122,1111122,1111122' 
DISL,ioos:station:DISL:KATA:1,2019-03-06T18:00:00Z,30.2583,-88.2131,0.0,4.5,73.0,99.0,'11111222,11111222,11144222' 
DISL,ioos:station:DISL:KATA:1,2019-03-06T18:30:00Z,30.2583,-88.2131,0.0,5.0,69.0,99.0,'11111222,11111222,11144222' 
DISL,ioos:station:DISL:KATA:1,2019-03-06T18:50:00Z,30.2583,-88.2131,0.0,4.55,70.09,-9999.0,'1111122,1111122,1111122' 
DISL,ioos:station:DISL:KATA:1,2019-03-06T19:00:00Z,30.2583,-88.2131,0.0,4.3,68.0,99.0,'11111222,11111222,11144222' 
DISL,ioos:station:DISL:KATA:1,2019-03-06T19:30:00Z,30.2583,-88.2131,0.0,4.3,82.0,99.0,'11111222,11111222,11144222' 
DISL,ioos:station:DISL:KATA:1,2019-03-06T19:50:00Z,30.2583,-88.2131,0.0,4.4,76.45,-9999.0,'1111122,1111122,1111122' 
DISL,ioos:station:DISL:KATA:1,2019-03-06T20:00:00Z,30.2583,-88.2131,0.0,4.1,80.0,99.0,'11111222,11111222,11144222' 
DISL,ioos:station:DISL:KATA:1,2019-03-06T20:30:00Z,30.2583,-88.2131,0.0,4.4,76.0,99.0,'11111222,11111222,11144222' 
DISL,ioos:station:DISL:KATA:1,2019-03-06T20:50:00Z,30.2583,-88.2131,0.0,3.73,81.5,-9999.0,'1111122,1111122,1111122' 
DISL,ioos:station:DISL:KATA:1,2019-03-06T21:00:00Z,30.2583,-88.2131,0.0,3.0,88.0,99.0,'11111222,11111222,11144222' 
DISL,ioos:station:DISL:KATA:1,2019-03-06T21:30:00Z,30.2583,-88.2131,0.0,3.2,88.0,99.0,'11111222,11111222,11144222' 
DISL,ioos:station:DISL:KATA:1,2019-03-06T21:50:00Z,30.2583,-88.2131,0.0,2.71,98.9,-9999.0,'1111122,1111122,1111122' 
DISL,ioos:station:DISL:KATA:1,2019-03-06T22:00:00Z,30.2583,-88.2131,0.0,2.5,98.0,99.0,'11111222,11111222,11144222' 
DISL,ioos:station:DISL:KATA:1,2019-03-06T22:30:00Z,30.2583,-88.2131,0.0,1.5,127.0,99.0,'11111222,11111222,11144222' 
DISL,ioos:station:DISL:KATA:1,2019-03-06T22:50:00Z,30.2583,-88.2131,0.0,4.55,241.0,-9999.0,'1111122,1111122,1111122' 
DISL,ioos:station:DISL:KATA:1,2019-03-06T23:00:00Z,30.2583,-88.2131,0.0,4.0,233.0,99.0,'11111222,11111222,11144222' 
DISL,ioos:station:DISL:KATA:1,2019-03-06T23:20:00Z,30.2583,-88.2131,0.0,4.41,240.9,-9999.0,'1111122,1111122,1111122' 
DISL,ioos:station:DISL:KATA:1,2019-03-06T23:30:00Z,30.2583,-88.2131,0.0,4.2,249.0,99.0,'11111222,11111222,11144222' 
DISL,ioos:station:DISL:KATA:1,2019-03-06T23:40:00Z,30.2583,-88.2131,0.0,4.19,254.4,-9999.0,'1111122,1111122,1111122' 
DISL,ioos:station:DISL:KATA:1,2019-03-07T13:00:00Z,30.2583,-88.2131,0.0,5.3,39.0,99.0,'11111222,11111222,11144222' 
DISL,ioos:station:DISL:KATA:1,2019-03-07T13:30:00Z,30.2583,-88.2131,0.0,5.0,37.0,99.0,'11111222,11111222,11144222' 
DISL,ioos:station:DISL:KATA:1,2019-03-07T13:50:00Z,30.2583,-88.2131,0.0,4.42,36.89,-9999.0,'1111122,1111122,1111122' 
DISL,ioos:station:DISL:KATA:1,2019-03-07T14:00:00Z,30.2583,-88.2131,0.0,4.4,40.0,99.0,'11111222,11111222,11144222' 
DISL,ioos:station:DISL:KATA:1,2019-03-07T14:30:00Z,30.2583,-88.2131,0.0,5.2,58.0,99.0,'11111222,11111222,11144222' 
DISL,ioos:station:DISL:KATA:1,2019-03-07T14:50:00Z,30.2583,-88.2131,0.0,4.74,60.91,-9999.0,'1111122,1111122,1111122' 
DISL,ioos:station:DISL:KATA:1,2019-03-07T15:00:00Z,30.2583,-88.2131,0.0,4.8,60.0,99.0,'11111222,11111222,11144222' 
DISL,ioos:station:DISL:KATA:1,2019-03-07T15:30:00Z,30.2583,-88.2131,0.0,4.8,60.0,99.0,'11111222,11111222,11144222' 
DISL,ioos:station:DISL:KATA:1,2019-03-07T15:50:00Z,30.2583,-88.2131,0.0,4.58,61.42,-9999.0,'1111122,1111122,1111122' 
DISL,ioos:station:DISL:KATA:1,2019-03-07T16:00:00Z,30.2583,-88.2131,0.0,4.9,64.0,99.0,'11111222,11111222,11144222' 
DISL,ioos:station:DISL:KATA:1,2019-03-07T16:30:00Z,30.2583,-88.2131,0.0,4.8,66.0,99.0,'11111222,11111222,11144222' 
DISL,ioos:station:DISL:KATA:1,2019-03-07T16:50:00Z,30.2583,-88.2131,0.0,4.86,64.03,-9999.0,'1111122,1111122,1111122' 
DISL,ioos:station:DISL:KATA:1,2019-03-07T17:00:00Z,30.2583,-88.2131,0.0,5.0,64.0,99.0,'11111222,11111222,11144222' 
DISL,ioos:station:DISL:KATA:1,2019-03-07T17:30:00Z,30.2583,-88.2131,0.0,5.1,58.0,99.0,'11111222,11111222,11144222' 
DISL,ioos:station:DISL:KATA:1,2019-03-07T17:50:00Z,30.2583,-88.2131,0.0,5.05,60.54,-9999.0,'1111122,1111122,1111122' 
DISL,ioos:station:DISL:KATA:1,2019-03-07T18:00:00Z,30.2583,-88.2131,0.0,4.8,63.0,99.0,'11111222,11111222,11144222' 
DISL,ioos:station:DISL:KATA:1,2019-03-07T18:30:00Z,30.2583,-88.2131,0.0,4.2,74.0,99.0,'11111222,11111222,11144222' 
DISL,ioos:station:DISL:KATA:1,2019-03-07T18:50:00Z,30.2583,-88.2131,0.0,4.0,79.49,-9999.0,'1111122,1111122,1111122' 
DISL,ioos:station:DISL:KATA:1,2019-03-07T19:00:00Z,30.2583,-88.2131,0.0,3.6,78.0,99.0,'11111222,11111222,11144222' 
DISL,ioos:station:DISL:KATA:1,2019-03-07T19:30:00Z,30.2583,-88.2131,0.0,3.5,91.0,99.0,'11111222,11111222,11144222' 
DISL,ioos:station:DISL:KATA:1,2019-03-07T19:50:00Z,30.2583,-88.2131,0.0,5.64,111.3,-9999.0,'1111122,1111122,1111122' 
DISL,ioos:station:DISL:KATA:1,2019-03-07T20:00:00Z,30.2583,-88.2131,0.0,5.6,117.0,99.0,'11111222,11111222,11144222' 
DISL,ioos:station:DISL:KATA:1,2019-03-07T20:30:00Z,30.2583,-88.2131,0.0,5.3,123.0,99.0,'11111222,11111222,11144222' 
DISL,ioos:station:DISL:KATA:1,2019-03-07T20:50:00Z,30.2583,-88.2131,0.0,5.44,126.4,-9999.0,'1111122,1111122,1111122' 
DISL,ioos:station:DISL:KATA:1,2019-03-07T21:00:00Z,30.2583,-88.2131,0.0,5.0,123.0,99.0,'11111222,11111222,11144222' 
DISL,ioos:station:DISL:KATA:1,2019-03-07T21:30:00Z,30.2583,-88.2131,0.0,4.9,131.0,99.0,'11111222,11111222,11144222' 
DISL,ioos:station:DISL:KATA:1,2019-03-07T21:50:00Z,30.2583,-88.2131,0.0,5.41,137.7,-9999.0,'1111122,1111122,1111122' 
DISL,ioos:station:DISL:KATA:1,2019-03-07T22:00:00Z,30.2583,-88.2131,0.0,6.0,146.0,99.0,'11111222,11111222,11144222' 
DISL,ioos:station:DISL:KATA:1,2019-03-07T22:30:00Z,30.2583,-88.2131,0.0,5.3,142.0,99.0,'11111222,11111222,11144222' 
DISL,ioos:station:DISL:KATA:1,2019-03-07T22:50:00Z,30.2583,-88.2131,0.0,4.87,137.4,-9999.0,'1111122,1111122,1111122' 
DISL,ioos:station:DISL:KATA:1,2019-03-07T23:00:00Z,30.2583,-88.2131,0.0,5.0,136.0,99.0,'11111222,11111222,11144222' 
DISL,ioos:station:DISL:KATA:1,2019-03-07T23:30:00Z,30.2583,-88.2131,0.0,4.3,133.0,99.0,'11111222,11111222,11144222' 
DISL,ioos:station:DISL:KATA:1,2019-03-07T23:50:00Z,30.2583,-88.2131,0.0,4.17,128.9,-9999.0,'1111122,1111122,1111122' 
DISL,ioos:station:DISL:KATA:1,2019-03-08T00:00:00Z,30.2583,-88.2131,0.0,4.4,131.0,99.0,'11111222,11111222,11144222' 
DISL,ioos:station:DISL:KATA:1,2019-03-08T00:30:00Z,30.2583,-88.2131,0.0,4.2,129.0,99.0,'11111222,11111222,11144222' 
DISL,ioos:station:DISL:KATA:1,2019-03-08T00:50:00Z,30.2583,-88.2131,0.0,4.14,145.2,-9999.0,'1111122,1111122,1111122' 
DISL,ioos:station:DISL:KATA:1,2019-03-08T01:00:00Z,30.2583,-88.2131,0.0,3.8,147.0,99.0,'11111222,11111222,11144222' 
DISL,ioos:station:DISL:KATA:1,2019-03-08T01:20:00Z,30.2583,-88.2131,0.0,3.53,134.3,-9999.0,'1111122,1111122,1111122' 
DISL,ioos:station:DISL:KATA:1,2019-03-08T01:30:00Z,30.2583,-88.2131,0.0,3.7,136.0,99.0,'11111222,11111222,11144222' 
DISL,ioos:station:DISL:KATA:1,2019-03-09T17:30:00Z,30.2583,-88.2131,0.0,7.7,150.0,99.0,'11111222,11111222,11144222' 
DISL,ioos:station:DISL:KATA:1,2019-03-09T17:50:00Z,30.2583,-88.2131,0.0,7.63,149.3,-9999.0,'1111122,1111122,1111122' 
DISL,ioos:station:DISL:KATA:1,2019-03-09T18:00:00Z,30.2583,-88.2131,0.0,7.5,152.0,99.0,'11111222,11111222,11144222' 
DISL,ioos:station:DISL:KATA:1,2019-03-09T18:30:00Z,30.2583,-88.2131,0.0,8.7,159.0,99.0,'11111222,11111222,11144222' 
DISL,ioos:station:DISL:KATA:1,2019-03-09T18:50:00Z,30.2583,-88.2131,0.0,8.84,154.4,-9999.0,'1111122,1111122,1111122' 
DISL,ioos:station:DISL:KATA:1,2019-03-09T19:00:00Z,30.2583,-88.2131,0.0,9.0,153.0,99.0,'11111222,11111222,11144222' 
DISL,ioos:station:DISL:KATA:1,2019-03-09T19:30:00Z,30.2583,-88.2131,0.0,9.4,154.0,99.0,'11111222,11111222,11144222' 
DISL,ioos:station:DISL:KATA:1,2019-03-10T15:50:00Z,30.2583,-88.2131,0.0,4.77,184.8,-9999.0,'1111122,1111122,1111122' 
DISL,ioos:station:DISL:KATA:1,2019-03-10T16:00:00Z,30.2583,-88.2131,0.0,4.7,187.0,99.0,'11111222,11111222,11144222' 
DISL,ioos:station:DISL:KATA:1,2019-03-10T16:30:00Z,30.2583,-88.2131,0.0,3.9,182.0,99.0,'11111222,11111222,11144222' 
DISL,ioos:station:DISL:KATA:1,2019-03-10T16:50:00Z,30.2583,-88.2131,0.0,3.82,178.0,-9999.0,'1111122,1111122,1111122' 
DISL,ioos:station:DISL:KATA:1,2019-03-10T17:00:00Z,30.2583,-88.2131,0.0,3.7,172.0,99.0,'11111222,11111222,11144222' 
DISL,ioos:station:DISL:KATA:1,2019-03-10T17:30:00Z,30.2583,-88.2131,0.0,2.1,194.0,99.0,'11111222,11111222,11144222' 
DISL,ioos:station:DISL:KATA:1,2019-03-10T17:50:00Z,30.2583,-88.2131,0.0,2.8,182.1,-9999.0,'1111122,1111122,1111122' 
DISL,ioos:station:DISL:KATA:1,2019-03-10T18:00:00Z,30.2583,-88.2131,0.0,2.9,187.0,99.0,'11111222,11111222,11144222' 
DISL,ioos:station:DISL:KATA:1,2019-03-10T18:30:00Z,30.2583,-88.2131,0.0,1.7,218.0,99.0,'11111222,11111222,11144222' 
DISL,ioos:station:DISL:KATA:1,2019-03-10T18:50:00Z,30.2583,-88.2131,0.0,2.03,247.3,-9999.0,'1111122,1111122,1111122' 
DISL,ioos:station:DISL:KATA:1,2019-03-10T19:00:00Z,30.2583,-88.2131,0.0,2.7,220.0,99.0,'11111222,11111222,11144222' 
DISL,ioos:station:DISL:KATA:1,2019-03-10T19:30:00Z,30.2583,-88.2131,0.0,1.8,208.0,99.0,'11111222,11111222,11144222' 
DISL,ioos:station:DISL:KATA:1,2019-03-10T19:50:00Z,30.2583,-88.2131,0.0,1.78,184.0,-9999.0,'1111122,1111122,1111122' 
DISL,ioos:station:DISL:KATA:1,2019-03-10T20:00:00Z,30.2583,-88.2131,0.0,2.8,190.0,99.0,'11111222,11111222,11144222' 
DISL,ioos:station:DISL:KATA:1,2019-03-10T20:30:00Z,30.2583,-88.2131,0.0,1.9,206.0,99.0,'11111222,11111222,11144222' 
DISL,ioos:station:DISL:KATA:1,2019-03-10T20:50:00Z,30.2583,-88.2131,0.0,2.61,188.2,-9999.0,'1111122,1111122,1111122' 
DISL,ioos:station:DISL:KATA:1,2019-03-10T21:00:00Z,30.2583,-88.2131,0.0,2.6,177.0,99.0,'11111222,11111222,11144222' 
DISL,ioos:station:DISL:KATA:1,2019-03-10T21:20:00Z,30.2583,-88.2131,0.0,2.88,165.5,-9999.0,'1111122,1111122,1111122' 
DISL,ioos:station:DISL:KATA:1,2019-03-10T21:30:00Z,30.2583,-88.2131,0.0,3.2,164.0,99.0,'11111222,11111222,11144222' 
DISL,ioos:station:DISL:KATA:1,2019-03-10T22:00:00Z,30.2583,-88.2131,0.0,3.3,167.0,99.0,'11111222,11111222,11144222' 